Weather History for KCUT - April, 2013

Change the Weather History Date:

Friday, April 26, 2013

  Actual Average Record
Temperature  
Mean Temperature 45 °F 42 °F  
Max Temperature 61 °F 55 °F 78 °F (1952)
Min Temperature 28 °F 30 °F 11 °F (1958)
Degree Days  
Heating Degree Days 20 23  
Month to date heating degree days 906 689  
Since 1 July heating degree days 7533 7564  
Cooling Degree Days 0 0  
Month to date cooling degree days 0 0  
Year to date cooling degree days 0 0  
Moisture  
Dew Point 20 °F    
Average Humidity 45    
Maximum Humidity 69    
Minimum Humidity 20    
Precipitation  
Precipitation 0.00 in 0.09 in 1.00 in (1971)
Month to date precipitation 3.21 1.75  
Year to date precipitation 4.88 3.62  
Sea Level Pressure  
Sea Level Pressure 30.09 in    
Wind  
Wind Speed 4 mph (WNW)    
Max Wind Speed 14 mph    
Max Gust Speed 22 mph    
Visibility 10 miles    
Events      
T = Trace of Precipitation, MM = Missing Value Source: NWS Daily Summary

Daily Weather History Graph

Daily Weather History Graph

Search for Another Location

Airport or City:

Trip Planner

Search our weather history database for the weather conditions in past years. The results will help you decide how hot, cold, wet, or windy it might be!

Date:

Astronomy

Apr. 26, 2013 Rise Set
Actual Time 5:53 AM MDT 7:51 PM MDT
Civil Twilight 5:22 AM MDT 8:22 PM MDT
Nautical Twilight 4:44 AM MDT 9:00 PM MDT
Astronomical Twilight 4:03 AM MDT 9:42 PM MDT
Moon 9:19 PM MDT (4/26) 6:21 AM MDT (4/26)
Length of Visible Light 15h 00m
Length of Day
13h 58m
Full, 99% of the Moon is Illuminated
Apr 26
Full
May 2
Last Quarter
May 9
New
May 17
First Quarter
May 24
Full

Hourly Weather History & Observations

Time (MDT) Temp. Windchill Dew Point Humidity Pressure Visibility Wind Dir Wind Speed Gust Speed Precip Events Conditions
12:53 AM 36.0 °F 32.1 °F 18.0 °F 48% 29.97 in 10.0 mi NW 4.6 mph - N/A   Clear
1:53 AM 28.0 °F 21.7 °F 19.9 °F 72% 30.01 in 10.0 mi NW 5.8 mph - N/A   Clear
2:53 AM 32.0 °F 27.5 °F 18.0 °F 56% 30.00 in 10.0 mi WNW 4.6 mph - N/A   Clear
3:53 AM 32.0 °F - 18.0 °F 56% 30.02 in 10.0 mi Calm Calm - N/A   Clear
4:53 AM 33.1 °F 30.0 °F 18.0 °F 54% 30.02 in 10.0 mi NW 3.5 mph - N/A   Clear
5:53 AM 33.1 °F 30.0 °F 18.0 °F 54% 30.04 in 10.0 mi West 3.5 mph - N/A   Clear
6:53 AM 37.9 °F 34.4 °F 19.9 °F 48% 30.06 in 10.0 mi WNW 4.6 mph - N/A   Clear
7:53 AM 46.9 °F - 21.0 °F 36% 30.06 in 10.0 mi West 6.9 mph - N/A   Clear
8:53 AM 52.0 °F - 19.9 °F 28% 30.08 in 10.0 mi West 8.1 mph 17.3 mph N/A   Clear
9:53 AM 54.0 °F - 21.0 °F 28% 30.12 in 10.0 mi West 3.5 mph - N/A   Clear
10:53 AM 54.0 °F - 21.0 °F 28% 30.14 in 10.0 mi Variable 5.8 mph 17.3 mph N/A   Scattered Clouds
11:53 AM 55.9 °F - 19.9 °F 25% 30.14 in 10.0 mi NNE 8.1 mph - N/A   Overcast
12:53 PM 55.9 °F - 21.0 °F 26% 30.13 in 10.0 mi WNW 6.9 mph - N/A   Overcast
1:53 PM 57.0 °F - 21.0 °F 25% 30.15 in 10.0 mi Variable 5.8 mph - N/A   Overcast
2:53 PM 57.9 °F - 21.0 °F 24% 30.14 in 10.0 mi East 3.5 mph - N/A   Overcast
3:53 PM 57.9 °F - 21.0 °F 24% 30.13 in 10.0 mi Calm Calm - N/A   Overcast
4:53 PM 60.1 °F - 19.9 °F 21% 30.10 in 10.0 mi West 11.5 mph 17.3 mph N/A   Overcast
5:53 PM 57.9 °F - 18.0 °F 21% 30.12 in 10.0 mi West 5.8 mph 18.4 mph N/A   Clear
6:53 PM 57.9 °F - 19.9 °F 23% 30.09 in 10.0 mi West 5.8 mph - N/A   Clear
7:53 PM 51.1 °F - 21.0 °F 31% 30.08 in 10.0 mi Calm Calm - N/A   Clear
8:53 PM 45.0 °F - 19.9 °F 37% 30.10 in 10.0 mi Calm Calm - N/A   Clear
9:53 PM 42.1 °F - 23.0 °F 47% 30.12 in 10.0 mi Calm Calm - N/A   Clear
10:53 PM 37.0 °F 33.3 °F 23.0 °F 57% 30.13 in 10.0 mi NW 4.6 mph - N/A   Clear
11:53 PM 34.0 °F 29.8 °F 23.0 °F 64% 30.13 in 10.0 mi NW 4.6 mph - N/A   Clear